Year,Month,Day,Hour,Minute,Value (Times are PST for temperature in C)
2015,11,16,00,00,0.50
2015,11,16,00,01,0.50
2015,11,16,00,02,0.50
2015,11,16,00,03,0.50
2015,11,16,00,04,0.50
2015,11,16,00,05,0.50
2015,11,16,00,06,0.50
2015,11,16,00,07,0.40
2015,11,16,00,08,0.40
2015,11,16,00,09,0.40
2015,11,16,00,10,0.40
2015,11,16,00,11,0.40
2015,11,16,00,12,0.30
2015,11,16,00,13,0.30
2015,11,16,00,14,0.20
2015,11,16,00,15,0.20
2015,11,16,00,16,0.20
2015,11,16,00,17,0.30
2015,11,16,00,18,0.30
2015,11,16,00,19,0.30
2015,11,16,00,20,0.30
2015,11,16,00,21,0.30
2015,11,16,00,22,0.20
2015,11,16,00,23,0.20
2015,11,16,00,24,0.20
2015,11,16,00,25,0.20
2015,11,16,00,26,0.20
2015,11,16,00,27,0.10
2015,11,16,00,28,0.10
2015,11,16,00,29,0.10
2015,11,16,00,30,0.10
2015,11,16,00,31,0.20
2015,11,16,00,32,0.20
2015,11,16,00,33,0.20
2015,11,16,00,34,0.20
2015,11,16,00,35,0.20
2015,11,16,00,36,0.20
2015,11,16,00,37,0.20
2015,11,16,00,38,0.20
2015,11,16,00,39,0.20
2015,11,16,00,40,0.10
2015,11,16,00,41,0.10
2015,11,16,00,42,0.10
2015,11,16,00,43,0.10
2015,11,16,00,44,0.10
2015,11,16,00,45,0.20
2015,11,16,00,46,0.20
2015,11,16,00,47,0.20
2015,11,16,00,48,0.20
2015,11,16,00,49,0.20
2015,11,16,00,50,0.20
2015,11,16,00,51,0.20
2015,11,16,00,52,0.20
2015,11,16,00,53,0.20
2015,11,16,00,54,0.30
2015,11,16,00,55,0.30
2015,11,16,00,56,0.30
2015,11,16,00,57,0.30
2015,11,16,00,58,0.30
2015,11,16,00,59,0.30
2015,11,16,01,00,0.30
2015,11,16,01,01,0.30
2015,11,16,01,02,0.30
2015,11,16,01,03,0.20
2015,11,16,01,04,0.20
2015,11,16,01,05,0.20
2015,11,16,01,06,0.20
2015,11,16,01,07,0.20
2015,11,16,01,08,0.20
2015,11,16,01,09,0.20
2015,11,16,01,10,0.20
2015,11,16,01,11,0.20
2015,11,16,01,12,0.20
2015,11,16,01,13,0.20
2015,11,16,01,14,0.20
2015,11,16,01,15,0.20
2015,11,16,01,16,0.20
2015,11,16,01,17,0.20
2015,11,16,01,18,0.10
2015,11,16,01,19,0.10
2015,11,16,01,20,0.10
2015,11,16,01,21,0.10
2015,11,16,01,22,0.00
2015,11,16,01,23,0.00
2015,11,16,01,24,-0.10
2015,11,16,01,25,-0.10
2015,11,16,01,26,-0.10
2015,11,16,01,27,-0.10
2015,11,16,01,28,-0.20
2015,11,16,01,29,-0.20
2015,11,16,01,30,-0.20
2015,11,16,01,31,-0.20
2015,11,16,01,32,-0.20
2015,11,16,01,33,-0.20
2015,11,16,01,34,-0.20
2015,11,16,01,35,-0.20
2015,11,16,01,36,-0.20
2015,11,16,01,37,-0.20
2015,11,16,01,38,-0.20
2015,11,16,01,39,-0.20
2015,11,16,01,40,-0.20
2015,11,16,01,41,-0.20
2015,11,16,01,42,-0.20
2015,11,16,01,43,-0.20
2015,11,16,01,44,-0.20
2015,11,16,01,45,-0.20
2015,11,16,01,46,-0.20
2015,11,16,01,47,-0.30
2015,11,16,01,48,-0.30
2015,11,16,01,49,-0.30
2015,11,16,01,50,-0.30
2015,11,16,01,51,-0.30
2015,11,16,01,52,-0.30
2015,11,16,01,53,-0.30
2015,11,16,01,54,-0.30
2015,11,16,01,55,-0.30
2015,11,16,01,56,-0.30
2015,11,16,01,57,-0.30
2015,11,16,01,58,-0.40
2015,11,16,01,59,-0.40
2015,11,16,02,00,-0.40
2015,11,16,02,01,-0.40
2015,11,16,02,02,-0.40
2015,11,16,02,03,-0.40
2015,11,16,02,04,-0.40
2015,11,16,02,05,-0.40
2015,11,16,02,06,-0.40
2015,11,16,02,07,-0.40
2015,11,16,02,08,-0.40
2015,11,16,02,09,-0.40
2015,11,16,02,10,-0.40
2015,11,16,02,11,-0.40
2015,11,16,02,12,-0.50
2015,11,16,02,13,-0.50
2015,11,16,02,14,-0.50
2015,11,16,02,15,-0.60
2015,11,16,02,16,-0.60
2015,11,16,02,17,-0.60
2015,11,16,02,18,-0.60
2015,11,16,02,19,-0.60
2015,11,16,02,20,-0.60
2015,11,16,02,21,-0.60
2015,11,16,02,22,-0.60
2015,11,16,02,23,-0.70
2015,11,16,02,24,-0.70
2015,11,16,02,25,-0.70
2015,11,16,02,26,-0.70
2015,11,16,02,27,-0.70
2015,11,16,02,28,-0.70
2015,11,16,02,29,-0.70
2015,11,16,02,30,-0.60
2015,11,16,02,31,-0.60
2015,11,16,02,32,-0.60
2015,11,16,02,33,-0.60
2015,11,16,02,34,-0.60
2015,11,16,02,35,-0.60
2015,11,16,02,36,-0.60
2015,11,16,02,37,-0.60
2015,11,16,02,38,-0.60
2015,11,16,02,39,-0.60
2015,11,16,02,40,-0.70
2015,11,16,02,41,-0.70
2015,11,16,02,42,-0.70
2015,11,16,02,43,-0.70
2015,11,16,02,44,-0.70
2015,11,16,02,45,-0.70
2015,11,16,02,46,-0.70
2015,11,16,02,47,-0.70
2015,11,16,02,48,-0.60
2015,11,16,02,49,-0.60
2015,11,16,02,50,-0.60
2015,11,16,02,51,-0.60
2015,11,16,02,52,-0.60
2015,11,16,02,53,-0.60
2015,11,16,02,54,-0.60
2015,11,16,02,55,-0.60
2015,11,16,02,56,-0.60
2015,11,16,02,57,-0.60
2015,11,16,02,58,-0.60
2015,11,16,02,59,-0.60
2015,11,16,03,00,-0.60
2015,11,16,03,01,-0.50
2015,11,16,03,02,-0.60
2015,11,16,03,03,-0.60
2015,11,16,03,04,-0.50
2015,11,16,03,05,-0.60
2015,11,16,03,06,-0.60
2015,11,16,03,07,-0.60
2015,11,16,03,08,-0.60
2015,11,16,03,09,-0.60
2015,11,16,03,10,-0.60
2015,11,16,03,11,-0.60
2015,11,16,03,12,-0.70
2015,11,16,03,13,-0.70
2015,11,16,03,14,-0.70
2015,11,16,03,15,-0.70
2015,11,16,03,16,-0.70
2015,11,16,03,17,-0.70
2015,11,16,03,18,-0.70
2015,11,16,03,19,-0.70
2015,11,16,03,20,-0.70
2015,11,16,03,21,-0.70
2015,11,16,03,22,-0.70
2015,11,16,03,23,-0.70
2015,11,16,03,24,-0.70
2015,11,16,03,25,-0.70
2015,11,16,03,26,-0.70
2015,11,16,03,27,-0.70
2015,11,16,03,28,-0.70
2015,11,16,03,29,-0.70
2015,11,16,03,30,-0.70
2015,11,16,03,31,-0.70
2015,11,16,03,32,-0.80
2015,11,16,03,33,-0.80
2015,11,16,03,34,-0.80
2015,11,16,03,35,-0.80
2015,11,16,03,36,-0.70
2015,11,16,03,37,-0.70
2015,11,16,03,38,-0.70
2015,11,16,03,39,-0.70
2015,11,16,03,40,-0.70
2015,11,16,03,41,-0.70
2015,11,16,03,42,-0.70
2015,11,16,03,43,-0.70
2015,11,16,03,44,-0.70
2015,11,16,03,45,-0.70
2015,11,16,03,46,-0.70
2015,11,16,03,47,-0.70
2015,11,16,03,48,-0.70
2015,11,16,03,49,-0.70
2015,11,16,03,50,-0.70
2015,11,16,03,51,-0.70
2015,11,16,03,52,-0.70
2015,11,16,03,53,-0.70
2015,11,16,03,54,-0.80
2015,11,16,03,55,-0.80
2015,11,16,03,56,-0.80
2015,11,16,03,57,-0.80
2015,11,16,03,58,-0.80
2015,11,16,03,59,-0.80
2015,11,16,04,00,-0.80
2015,11,16,04,01,-0.80
2015,11,16,04,02,-0.80
2015,11,16,04,03,-0.80
2015,11,16,04,04,-0.80
2015,11,16,04,05,-0.80
2015,11,16,04,06,-0.80
2015,11,16,04,07,-0.80
2015,11,16,04,08,-0.80
2015,11,16,04,09,-0.80
2015,11,16,04,10,-0.80
2015,11,16,04,11,-0.80
2015,11,16,04,12,-0.80
2015,11,16,04,13,-0.80
2015,11,16,04,14,-0.80
2015,11,16,04,15,-0.80
2015,11,16,04,16,-0.70
2015,11,16,04,17,-0.70
2015,11,16,04,18,-0.70
2015,11,16,04,19,-0.70
2015,11,16,04,20,-0.70
2015,11,16,04,21,-0.70
2015,11,16,04,22,-0.70
2015,11,16,04,23,-0.70
2015,11,16,04,24,-0.70
2015,11,16,04,25,-0.70
2015,11,16,04,26,-0.70
2015,11,16,04,27,-0.70
2015,11,16,04,28,-0.80
2015,11,16,04,29,-0.80
2015,11,16,04,30,-0.80
2015,11,16,04,31,-0.80
2015,11,16,04,32,-0.80
2015,11,16,04,33,-0.70
2015,11,16,04,34,-0.70
2015,11,16,04,35,-0.70
2015,11,16,04,36,-0.70
2015,11,16,04,37,-0.80
2015,11,16,04,38,-0.80
2015,11,16,04,39,-0.80
2015,11,16,04,40,-0.80
2015,11,16,04,41,-0.80
2015,11,16,04,42,-0.80
2015,11,16,04,43,-0.80
2015,11,16,04,44,-0.90
2015,11,16,04,45,-0.90
2015,11,16,04,46,-0.90
2015,11,16,04,47,-0.90
2015,11,16,04,48,-0.90
2015,11,16,04,49,-0.90
2015,11,16,04,50,-0.90
2015,11,16,04,51,-0.90
2015,11,16,04,52,-0.90
2015,11,16,04,53,-0.90
2015,11,16,04,54,-0.90
2015,11,16,04,55,-0.90
2015,11,16,04,56,-0.90
2015,11,16,04,57,-0.90
2015,11,16,04,58,-0.90
2015,11,16,04,59,-0.90
2015,11,16,05,00,-1.00
2015,11,16,05,01,-1.00
2015,11,16,05,02,-1.00
2015,11,16,05,03,-1.00
2015,11,16,05,04,-0.90
2015,11,16,05,05,-0.90
2015,11,16,05,06,-0.90
2015,11,16,05,07,-0.90
2015,11,16,05,08,-0.80
2015,11,16,05,09,-0.80
2015,11,16,05,10,-0.80
2015,11,16,05,11,-0.70
2015,11,16,05,12,-0.70
2015,11,16,05,13,-0.70
2015,11,16,05,14,-0.60
2015,11,16,05,15,-0.60
2015,11,16,05,16,-0.60
2015,11,16,05,17,-0.60
2015,11,16,05,18,-0.60
2015,11,16,05,19,-0.60
2015,11,16,05,20,-0.60
2015,11,16,05,21,-0.60
2015,11,16,05,22,-0.60
2015,11,16,05,23,-0.60
2015,11,16,05,24,-0.60
2015,11,16,05,25,-0.60
2015,11,16,05,26,-0.60
2015,11,16,05,27,-0.60
2015,11,16,05,28,-0.60
2015,11,16,05,29,-0.60
2015,11,16,05,30,-0.60
2015,11,16,05,31,-0.60
2015,11,16,05,32,-0.60
2015,11,16,05,33,-0.60
2015,11,16,05,34,-0.50
2015,11,16,05,35,-0.50
2015,11,16,05,36,-0.50
2015,11,16,05,37,-0.40
2015,11,16,05,38,-0.40
2015,11,16,05,39,-0.40
2015,11,16,05,40,-0.40
2015,11,16,05,41,-0.30
2015,11,16,05,42,-0.30
2015,11,16,05,43,-0.30
2015,11,16,05,44,-0.30
2015,11,16,05,45,-0.30
2015,11,16,05,46,-0.30
2015,11,16,05,47,-0.30
2015,11,16,05,48,-0.30
2015,11,16,05,49,-0.30
2015,11,16,05,50,-0.30
2015,11,16,05,51,-0.30
2015,11,16,05,52,-0.20
2015,11,16,05,53,-0.20
2015,11,16,05,54,-0.20
2015,11,16,05,55,-0.20
2015,11,16,05,56,-0.20
2015,11,16,05,57,-0.20
2015,11,16,05,58,-0.20
2015,11,16,05,59,-0.20
2015,11,16,06,00,-0.20
2015,11,16,06,01,-0.20
2015,11,16,06,02,-0.20
2015,11,16,06,03,-0.20
2015,11,16,06,04,-0.20
2015,11,16,06,05,-0.20
2015,11,16,06,06,-0.20
2015,11,16,06,07,-0.20
2015,11,16,06,08,-0.20
2015,11,16,06,09,-0.10
2015,11,16,06,10,-0.10
2015,11,16,06,11,-0.10
2015,11,16,06,12,-0.10
2015,11,16,06,13,-0.10
2015,11,16,06,14,0.00
2015,11,16,06,15,0.00
2015,11,16,06,16,0.10
2015,11,16,06,17,0.10
2015,11,16,06,18,0.10
2015,11,16,06,19,0.10
2015,11,16,06,20,0.10
2015,11,16,06,21,0.10
2015,11,16,06,22,0.10
2015,11,16,06,23,0.10
2015,11,16,06,24,0.20
2015,11,16,06,25,0.20
2015,11,16,06,26,0.20
2015,11,16,06,27,0.20
2015,11,16,06,28,0.20
2015,11,16,06,29,0.20
2015,11,16,06,30,0.20
2015,11,16,06,31,0.30
2015,11,16,06,32,0.30
2015,11,16,06,33,0.30
2015,11,16,06,34,0.30
2015,11,16,06,35,0.30
2015,11,16,06,36,0.30
2015,11,16,06,37,0.30
2015,11,16,06,38,0.30
2015,11,16,06,39,0.30
2015,11,16,06,40,0.40
2015,11,16,06,41,0.40
2015,11,16,06,42,0.40
2015,11,16,06,43,0.40
2015,11,16,06,44,0.40
2015,11,16,06,45,0.40
2015,11,16,06,46,0.40
2015,11,16,06,47,0.40
2015,11,16,06,48,0.40
2015,11,16,06,49,0.50
2015,11,16,06,50,0.50
2015,11,16,06,51,0.50
2015,11,16,06,52,0.50
2015,11,16,06,53,0.50
2015,11,16,06,54,0.60
2015,11,16,06,55,0.60
2015,11,16,06,56,0.60
2015,11,16,06,57,0.60
2015,11,16,06,58,0.60
2015,11,16,06,59,0.60
2015,11,16,07,00,0.60
2015,11,16,07,01,0.70
2015,11,16,07,02,0.70
2015,11,16,07,03,0.70
2015,11,16,07,04,0.70
2015,11,16,07,05,0.70
2015,11,16,07,06,0.70
2015,11,16,07,07,0.70
2015,11,16,07,08,0.70
2015,11,16,07,09,0.70
2015,11,16,07,10,0.70
2015,11,16,07,11,0.70
2015,11,16,07,12,0.70
2015,11,16,07,13,0.70
2015,11,16,07,14,0.70
2015,11,16,07,15,0.70
2015,11,16,07,16,0.70
2015,11,16,07,17,0.70
2015,11,16,07,18,0.70
2015,11,16,07,19,0.80
2015,11,16,07,20,0.90
2015,11,16,07,21,1.00
2015,11,16,07,22,1.00
2015,11,16,07,23,1.20
2015,11,16,07,24,1.40
2015,11,16,07,25,1.60
2015,11,16,07,26,2.10
2015,11,16,07,27,2.50
2015,11,16,07,28,2.80
2015,11,16,07,29,3.10
2015,11,16,07,30,3.30
2015,11,16,07,31,3.50
2015,11,16,07,32,3.70
2015,11,16,07,33,3.90
2015,11,16,07,34,4.10
2015,11,16,07,35,4.30
2015,11,16,07,36,4.50
2015,11,16,07,37,4.70
2015,11,16,07,38,4.80
2015,11,16,07,39,4.90
2015,11,16,07,40,5.10
2015,11,16,07,41,5.20
2015,11,16,07,42,5.40
2015,11,16,07,43,5.40
2015,11,16,07,44,5.50
2015,11,16,07,45,5.60
2015,11,16,07,46,5.60
2015,11,16,07,47,5.60
2015,11,16,07,48,5.70
2015,11,16,07,49,5.80
2015,11,16,07,50,5.80
2015,11,16,07,51,5.90
2015,11,16,07,52,5.90
2015,11,16,07,53,6.00
2015,11,16,07,54,6.00
2015,11,16,07,55,6.10
2015,11,16,07,56,6.10
2015,11,16,07,57,6.10
2015,11,16,07,58,6.10
2015,11,16,07,59,6.10
2015,11,16,08,00,6.20
2015,11,16,08,01,6.10
2015,11,16,08,02,6.10
2015,11,16,08,03,6.10
2015,11,16,08,04,6.10
2015,11,16,08,05,6.10
2015,11,16,08,06,6.10
2015,11,16,08,07,6.10
2015,11,16,08,08,6.20
2015,11,16,08,09,6.20
2015,11,16,08,10,6.20
2015,11,16,08,11,6.20
2015,11,16,08,12,6.20
2015,11,16,08,13,6.20
2015,11,16,08,14,6.20
2015,11,16,08,15,6.20
2015,11,16,08,16,6.20
2015,11,16,08,17,6.20
2015,11,16,08,18,6.20
2015,11,16,08,19,6.20
2015,11,16,08,20,6.20
2015,11,16,08,21,6.20
2015,11,16,08,22,6.20
2015,11,16,08,23,6.20
2015,11,16,08,24,6.10
2015,11,16,08,25,6.10
2015,11,16,08,26,6.10
2015,11,16,08,27,6.10
2015,11,16,08,28,6.10
2015,11,16,08,29,6.10
2015,11,16,08,30,6.10
2015,11,16,08,31,6.10
2015,11,16,08,32,6.10
2015,11,16,08,33,6.10
2015,11,16,08,34,6.10
2015,11,16,08,35,6.10
2015,11,16,08,36,6.10
2015,11,16,08,37,6.10
2015,11,16,08,38,6.10
2015,11,16,08,39,6.10
2015,11,16,08,40,6.20
2015,11,16,08,41,6.20
2015,11,16,08,42,6.20
2015,11,16,08,43,6.20
2015,11,16,08,44,6.20
2015,11,16,08,45,6.20
2015,11,16,08,46,6.30
2015,11,16,08,47,6.30
2015,11,16,08,48,6.30
2015,11,16,08,49,6.30
2015,11,16,08,50,6.30
2015,11,16,08,51,6.30
2015,11,16,08,52,6.30
2015,11,16,08,53,6.30
2015,11,16,08,54,6.30
2015,11,16,08,55,6.30
2015,11,16,08,56,6.30
2015,11,16,08,57,6.30
2015,11,16,08,58,6.30
2015,11,16,08,59,6.30
2015,11,16,09,00,6.30
2015,11,16,09,01,6.30
2015,11,16,09,02,6.30
2015,11,16,09,03,6.30
2015,11,16,09,04,6.30
2015,11,16,09,05,6.30
2015,11,16,09,06,6.30
2015,11,16,09,07,6.30
2015,11,16,09,08,6.30
2015,11,16,09,09,6.30
2015,11,16,09,10,6.30
2015,11,16,09,11,6.30
2015,11,16,09,12,6.30
2015,11,16,09,13,6.30
2015,11,16,09,14,6.40
2015,11,16,09,15,6.40
2015,11,16,09,16,6.40
2015,11,16,09,17,6.30
2015,11,16,09,18,6.30
2015,11,16,09,19,6.30
2015,11,16,09,20,6.30
2015,11,16,09,21,6.30
2015,11,16,09,22,6.30
2015,11,16,09,23,6.30
2015,11,16,09,24,6.30
2015,11,16,09,25,6.30
2015,11,16,09,26,6.30
2015,11,16,09,27,6.30
2015,11,16,09,28,6.30
2015,11,16,09,29,6.30
2015,11,16,09,30,6.30
2015,11,16,09,31,6.30
2015,11,16,09,32,6.30
2015,11,16,09,33,6.30
2015,11,16,09,34,6.30
2015,11,16,09,35,6.30
2015,11,16,09,36,6.30
2015,11,16,09,37,6.30
2015,11,16,09,38,6.30
2015,11,16,09,39,6.30
2015,11,16,09,40,6.30
2015,11,16,09,41,6.30
2015,11,16,09,42,6.30
2015,11,16,09,43,6.30
2015,11,16,09,44,6.30
2015,11,16,09,45,6.30
2015,11,16,09,46,6.30
2015,11,16,09,47,6.30
2015,11,16,09,48,6.30
2015,11,16,09,49,6.30
2015,11,16,09,50,6.30
2015,11,16,09,51,6.30
2015,11,16,09,52,6.30
2015,11,16,09,53,6.20
2015,11,16,09,54,6.20
2015,11,16,09,55,6.20
2015,11,16,09,56,6.20
2015,11,16,09,57,6.20
2015,11,16,09,58,6.20
2015,11,16,09,59,6.20
2015,11,16,10,00,6.20
2015,11,16,10,01,6.20
2015,11,16,10,02,6.20
2015,11,16,10,03,6.20
2015,11,16,10,04,6.20
2015,11,16,10,05,6.20
2015,11,16,10,06,6.20
2015,11,16,10,07,6.20
2015,11,16,10,08,6.20
2015,11,16,10,09,6.30
2015,11,16,10,10,6.30
2015,11,16,10,11,6.30
2015,11,16,10,12,6.30
2015,11,16,10,13,6.30
2015,11,16,10,14,6.30
2015,11,16,10,15,6.30
2015,11,16,10,16,6.40
2015,11,16,10,17,6.40
2015,11,16,10,18,6.30
2015,11,16,10,19,6.30
2015,11,16,10,20,6.30
2015,11,16,10,21,6.20
2015,11,16,10,22,6.20
2015,11,16,10,23,6.20
2015,11,16,10,24,6.10
2015,11,16,10,25,6.10
2015,11,16,10,26,6.10
2015,11,16,10,27,6.10
2015,11,16,10,28,6.10
2015,11,16,10,29,6.10
2015,11,16,10,30,6.10
2015,11,16,10,31,6.10
2015,11,16,10,32,6.10
2015,11,16,10,33,6.10
2015,11,16,10,34,6.20
2015,11,16,10,35,6.20
2015,11,16,10,36,6.20
2015,11,16,10,37,6.20
2015,11,16,10,38,6.30
2015,11,16,10,39,6.30
2015,11,16,10,40,6.30
2015,11,16,10,41,6.30
2015,11,16,10,42,6.40
2015,11,16,10,43,6.40
2015,11,16,10,44,6.40
2015,11,16,10,45,6.40
2015,11,16,10,46,6.40
2015,11,16,10,47,6.40
2015,11,16,10,48,6.40
2015,11,16,10,49,6.40
2015,11,16,10,50,6.50
2015,11,16,10,51,6.50
2015,11,16,10,52,6.50
2015,11,16,10,53,6.50
2015,11,16,10,54,6.50
2015,11,16,10,55,6.60
2015,11,16,10,56,6.60
2015,11,16,10,57,6.60
2015,11,16,10,58,6.60
2015,11,16,10,59,6.60
2015,11,16,11,00,6.60
2015,11,16,11,01,6.60
2015,11,16,11,02,6.60
2015,11,16,11,03,6.60
2015,11,16,11,04,6.70
2015,11,16,11,05,6.70
2015,11,16,11,06,6.70
2015,11,16,11,07,6.70
2015,11,16,11,08,6.70
2015,11,16,11,09,6.70
2015,11,16,11,10,6.70
2015,11,16,11,11,6.70
2015,11,16,11,12,6.70
2015,11,16,11,13,6.70
2015,11,16,11,14,6.80
2015,11,16,11,15,6.80
2015,11,16,11,16,6.80
2015,11,16,11,17,6.80
2015,11,16,11,18,6.80
2015,11,16,11,19,6.80
2015,11,16,11,20,6.80
2015,11,16,11,21,6.80
2015,11,16,11,22,6.80
2015,11,16,11,23,6.80
2015,11,16,11,24,6.80
2015,11,16,11,25,6.80
2015,11,16,11,26,6.70
2015,11,16,11,27,6.70
2015,11,16,11,28,6.70
2015,11,16,11,29,6.70
2015,11,16,11,30,6.70
2015,11,16,11,31,6.70
2015,11,16,11,32,6.70
2015,11,16,11,33,6.70
2015,11,16,11,34,6.70
2015,11,16,11,35,6.70
2015,11,16,11,36,6.70
2015,11,16,11,37,6.70
2015,11,16,11,38,6.70
2015,11,16,11,39,6.70
2015,11,16,11,40,6.70
2015,11,16,11,41,6.70
2015,11,16,11,42,6.70
2015,11,16,11,43,6.70
2015,11,16,11,44,6.70
2015,11,16,11,45,6.70
2015,11,16,11,46,6.70
2015,11,16,11,47,6.80
2015,11,16,11,48,6.80
2015,11,16,11,49,6.80
2015,11,16,11,50,6.80
2015,11,16,11,51,6.80
2015,11,16,11,52,6.80
2015,11,16,11,53,6.80
2015,11,16,11,54,6.80
2015,11,16,11,55,6.80
2015,11,16,11,56,6.90
2015,11,16,11,57,6.90
2015,11,16,11,58,6.90
2015,11,16,11,59,6.90
2015,11,16,12,00,6.90
2015,11,16,12,01,6.90
2015,11,16,12,02,6.90
2015,11,16,12,03,6.90
2015,11,16,12,04,6.90
2015,11,16,12,05,7.00
2015,11,16,12,06,7.00
2015,11,16,12,07,7.00
2015,11,16,12,08,7.00
2015,11,16,12,09,7.00
2015,11,16,12,10,7.00
2015,11,16,12,11,7.10
2015,11,16,12,12,7.10
2015,11,16,12,13,7.10
2015,11,16,12,14,7.10
2015,11,16,12,15,7.10
2015,11,16,12,16,7.10
2015,11,16,12,17,7.10
2015,11,16,12,18,7.10
2015,11,16,12,19,7.20
2015,11,16,12,20,7.20
2015,11,16,12,21,7.20
2015,11,16,12,22,7.20
2015,11,16,12,23,7.20
2015,11,16,12,24,7.20
2015,11,16,12,25,7.20
2015,11,16,12,26,7.20
2015,11,16,12,27,7.20
2015,11,16,12,28,7.20
2015,11,16,12,29,7.20
2015,11,16,12,30,7.20
2015,11,16,12,31,7.20
2015,11,16,12,32,7.20
2015,11,16,12,33,7.20
2015,11,16,12,34,7.20
2015,11,16,12,35,7.20
2015,11,16,12,36,7.20
2015,11,16,12,37,7.20
2015,11,16,12,38,7.20
2015,11,16,12,39,7.20
2015,11,16,12,40,7.20
2015,11,16,12,41,7.20
2015,11,16,12,42,7.20
2015,11,16,12,43,7.20
2015,11,16,12,44,7.20
2015,11,16,12,45,7.20
2015,11,16,12,46,7.30
2015,11,16,12,47,7.30
2015,11,16,12,48,7.30
2015,11,16,12,49,7.30
2015,11,16,12,50,7.30
2015,11,16,12,51,7.30
2015,11,16,12,52,7.30
2015,11,16,12,53,7.30
2015,11,16,12,54,7.30
2015,11,16,12,55,7.30
2015,11,16,12,56,7.30
2015,11,16,12,57,7.30
2015,11,16,12,58,7.30
2015,11,16,12,59,7.30
2015,11,16,13,00,7.30
2015,11,16,13,01,7.30
2015,11,16,13,02,7.30
2015,11,16,13,03,7.30
2015,11,16,13,04,7.30
2015,11,16,13,05,7.30
2015,11,16,13,06,7.30
2015,11,16,13,07,7.30
2015,11,16,13,08,7.30
2015,11,16,13,09,7.30
2015,11,16,13,10,7.30
2015,11,16,13,11,7.30
2015,11,16,13,12,7.30
2015,11,16,13,13,7.30
2015,11,16,13,14,7.30
2015,11,16,13,15,7.30
2015,11,16,13,16,7.30
2015,11,16,13,17,7.30
2015,11,16,13,18,7.30
2015,11,16,13,19,7.30
2015,11,16,13,20,7.30
2015,11,16,13,21,7.30
2015,11,16,13,22,7.30
2015,11,16,13,23,7.30
2015,11,16,13,24,7.30
2015,11,16,13,25,7.30
2015,11,16,13,26,7.40
2015,11,16,13,27,7.40
2015,11,16,13,28,7.40
2015,11,16,13,29,7.40
2015,11,16,13,30,7.40
2015,11,16,13,31,7.40
2015,11,16,13,32,7.40
2015,11,16,13,33,7.40
2015,11,16,13,34,7.40
2015,11,16,13,35,7.40
2015,11,16,13,36,7.50
2015,11,16,13,37,7.50
2015,11,16,13,38,7.50
2015,11,16,13,39,7.50
2015,11,16,13,40,7.50
2015,11,16,13,41,7.60
2015,11,16,13,42,7.60
2015,11,16,13,43,7.60
2015,11,16,13,44,7.60
2015,11,16,13,45,7.60
2015,11,16,13,46,7.60
2015,11,16,13,47,7.60
2015,11,16,13,48,7.60
2015,11,16,13,49,7.60
2015,11,16,13,50,7.60
2015,11,16,13,51,7.60
2015,11,16,13,52,7.70
2015,11,16,13,53,7.70
2015,11,16,13,54,7.70
2015,11,16,13,55,7.70
2015,11,16,13,56,7.70
2015,11,16,13,57,7.70
2015,11,16,13,58,7.70
2015,11,16,13,59,7.70
2015,11,16,14,00,7.70
2015,11,16,14,01,7.70
2015,11,16,14,02,7.70
2015,11,16,14,03,7.70
2015,11,16,14,04,7.70
2015,11,16,14,05,7.70
2015,11,16,14,06,7.60
2015,11,16,14,07,7.60
2015,11,16,14,08,7.60
2015,11,16,14,09,7.60
2015,11,16,14,10,7.60
2015,11,16,14,11,7.60
2015,11,16,14,12,7.60
2015,11,16,14,13,7.60
2015,11,16,14,14,7.60
2015,11,16,14,15,7.60
2015,11,16,14,16,7.60
2015,11,16,14,17,7.60
2015,11,16,14,18,7.60
2015,11,16,14,19,7.60
2015,11,16,14,20,7.60
2015,11,16,14,21,7.60
2015,11,16,14,22,7.60
2015,11,16,14,23,7.60
2015,11,16,14,24,7.60
2015,11,16,14,25,7.60
2015,11,16,14,26,7.60
2015,11,16,14,27,7.60
2015,11,16,14,28,7.60
2015,11,16,14,29,7.60
2015,11,16,14,30,7.60
2015,11,16,14,31,7.60
2015,11,16,14,32,7.50
2015,11,16,14,33,7.50
2015,11,16,14,34,7.50
2015,11,16,14,35,7.50
2015,11,16,14,36,7.50
2015,11,16,14,37,7.50
2015,11,16,14,38,7.50
2015,11,16,14,39,7.40
2015,11,16,14,40,7.40
2015,11,16,14,41,7.40
2015,11,16,14,42,7.40
2015,11,16,14,43,7.40
2015,11,16,14,44,7.40
2015,11,16,14,45,7.40
2015,11,16,14,46,7.40
2015,11,16,14,47,7.40
2015,11,16,14,48,7.40
2015,11,16,14,49,7.40
2015,11,16,14,50,7.40
2015,11,16,14,51,7.40
2015,11,16,14,52,7.40
2015,11,16,14,53,7.40
2015,11,16,14,54,7.30
2015,11,16,14,55,7.30
2015,11,16,14,56,7.30
2015,11,16,14,57,7.30
2015,11,16,14,58,7.30
2015,11,16,14,59,7.30
2015,11,16,15,00,7.30
2015,11,16,15,01,7.30
2015,11,16,15,02,7.30
2015,11,16,15,03,7.30
2015,11,16,15,04,7.30
2015,11,16,15,05,7.30
2015,11,16,15,06,7.30
2015,11,16,15,07,7.30
2015,11,16,15,08,7.30
2015,11,16,15,09,7.30
2015,11,16,15,10,7.30
2015,11,16,15,11,7.30
2015,11,16,15,12,7.30
2015,11,16,15,13,7.30
2015,11,16,15,14,7.30
2015,11,16,15,15,7.30
2015,11,16,15,16,7.30
2015,11,16,15,17,7.30
2015,11,16,15,18,7.30
2015,11,16,15,19,7.30
2015,11,16,15,20,7.30
2015,11,16,15,21,7.30
2015,11,16,15,22,7.30
2015,11,16,15,23,7.30
2015,11,16,15,24,7.30
2015,11,16,15,25,7.30
2015,11,16,15,26,7.30
2015,11,16,15,27,7.30
2015,11,16,15,28,7.30
2015,11,16,15,29,7.30
2015,11,16,15,30,7.30
2015,11,16,15,31,7.30
2015,11,16,15,32,7.30
2015,11,16,15,33,7.30
2015,11,16,15,34,7.30
2015,11,16,15,35,7.30
2015,11,16,15,36,7.30
2015,11,16,15,37,7.30
2015,11,16,15,38,7.30
2015,11,16,15,39,7.30
2015,11,16,15,40,7.30
2015,11,16,15,41,7.30
2015,11,16,15,42,7.30
2015,11,16,15,43,7.30
2015,11,16,15,44,7.30
2015,11,16,15,45,7.30
2015,11,16,15,46,7.30
2015,11,16,15,47,7.30
2015,11,16,15,48,7.30
2015,11,16,15,49,7.30
2015,11,16,15,50,7.30
2015,11,16,15,51,7.30
2015,11,16,15,52,7.30
2015,11,16,15,53,7.30
2015,11,16,15,54,7.30
2015,11,16,15,55,7.30
2015,11,16,15,56,7.30
2015,11,16,15,57,7.30
2015,11,16,15,58,7.40
2015,11,16,15,59,7.40
2015,11,16,16,00,7.40
2015,11,16,16,01,7.40
2015,11,16,16,02,7.40
2015,11,16,16,03,7.40
2015,11,16,16,04,7.40
2015,11,16,16,05,7.40
2015,11,16,16,06,7.40
2015,11,16,16,07,7.40
2015,11,16,16,08,7.40
2015,11,16,16,09,7.40
2015,11,16,16,10,7.40
2015,11,16,16,11,7.40
2015,11,16,16,12,7.40
2015,11,16,16,13,7.40
2015,11,16,16,14,7.40
2015,11,16,16,15,7.50
2015,11,16,16,16,7.50
2015,11,16,16,17,7.50
2015,11,16,16,18,7.50
2015,11,16,16,19,7.50
2015,11,16,16,20,7.50
2015,11,16,16,21,7.50
2015,11,16,16,22,7.40
2015,11,16,16,23,7.40
2015,11,16,16,24,7.40
2015,11,16,16,25,7.40
2015,11,16,16,26,7.40
2015,11,16,16,27,7.40
2015,11,16,16,28,7.40
2015,11,16,16,29,7.40
2015,11,16,16,30,7.40
2015,11,16,16,31,7.40
2015,11,16,16,32,7.40
2015,11,16,16,33,7.40
2015,11,16,16,34,7.40
2015,11,16,16,35,7.40
2015,11,16,16,36,7.40
2015,11,16,16,37,7.40
2015,11,16,16,38,7.40
2015,11,16,16,39,7.40
2015,11,16,16,40,7.30
2015,11,16,16,41,7.30
2015,11,16,16,42,7.40
2015,11,16,16,43,7.40
2015,11,16,16,44,7.40
2015,11,16,16,45,7.40
2015,11,16,16,46,7.40
2015,11,16,16,47,7.40
2015,11,16,16,48,7.40
2015,11,16,16,49,7.40
2015,11,16,16,50,7.40
2015,11,16,16,51,7.40
2015,11,16,16,52,7.40
2015,11,16,16,53,7.40
2015,11,16,16,54,7.40
2015,11,16,16,55,7.40
2015,11,16,16,56,7.50
2015,11,16,16,57,7.40
2015,11,16,16,58,7.50
2015,11,16,16,59,7.40
2015,11,16,17,00,7.40
2015,11,16,17,01,7.50
2015,11,16,17,02,7.50
2015,11,16,17,03,7.50
2015,11,16,17,04,7.60
2015,11,16,17,05,7.60
2015,11,16,17,06,7.60
2015,11,16,17,07,7.60
2015,11,16,17,08,7.60
2015,11,16,17,09,7.60
2015,11,16,17,10,7.70
2015,11,16,17,11,7.70
2015,11,16,17,12,7.70
2015,11,16,17,13,7.70
2015,11,16,17,14,7.70
2015,11,16,17,15,7.70
2015,11,16,17,16,7.70
2015,11,16,17,17,7.70
2015,11,16,17,18,7.70
2015,11,16,17,19,7.70
2015,11,16,17,20,7.70
2015,11,16,17,21,7.70
2015,11,16,17,22,7.70
2015,11,16,17,23,7.70
2015,11,16,17,24,7.70
2015,11,16,17,25,7.70
2015,11,16,17,26,7.70
2015,11,16,17,27,7.70
2015,11,16,17,28,7.70
2015,11,16,17,29,7.60
2015,11,16,17,30,7.60
2015,11,16,17,31,7.60
2015,11,16,17,32,7.60
2015,11,16,17,33,7.60
2015,11,16,17,34,7.60
2015,11,16,17,35,7.50
2015,11,16,17,36,7.50
2015,11,16,17,37,7.50
2015,11,16,17,38,7.50
2015,11,16,17,39,7.50
2015,11,16,17,40,7.50
2015,11,16,17,41,7.50
2015,11,16,17,42,7.50
2015,11,16,17,43,7.50
2015,11,16,17,44,7.50
2015,11,16,17,45,7.50
2015,11,16,17,46,7.50
2015,11,16,17,47,7.50
2015,11,16,17,48,7.50
2015,11,16,17,49,7.50
2015,11,16,17,50,7.50
2015,11,16,17,51,7.50
2015,11,16,17,52,7.40
2015,11,16,17,53,7.40